Date,TemperatureHighF,TemperatureAvgF,TemperatureLowF,DewpointHighF,DewpointAvgF,DewpointLowF,HumidityHigh,HumidityAvg,HumidityLow,PressureMaxIn,PressureMinIn,WindSpeedMaxMPH,WindSpeedAvgMPH,GustSpeedMaxMPH,PrecipitationSumIn
2013-2-1,49.1,44.7,39.2,40.1,36.8,33.3,91,75,56,0.00,40.00,8,2,10,0.00
2013-2-2,57.2,50.4,44.6,42.3,34.6,26.8,74,56,35,0.00,40.00,6,1,10,0.00
2013-2-3,68.4,58.6,52.9,43.2,38.8,35.6,68,49,34,0.00,40.00,11,2,11,0.00
2013-2-4,61.5,56.7,48.6,43.9,37.8,34.5,83,51,37,0.00,40.00,9,2,11,0.00
2013-2-5,57.9,48.3,44.4,43.5,37.4,23.9,94,69,33,0.00,40.00,7,2,8,0.04
2013-2-6,58.3,48.8,44.1,46.4,42.5,40.1,91,79,57,0.00,40.00,6,1,6,0.00
2013-2-7,61.2,56.3,51.8,44.4,41.2,37.6,72,58,44,0.00,40.00,9,1,10,0.04
2013-2-8,59.0,52.6,49.3,43.3,39.5,31.5,79,63,35,0.00,40.00,8,1,14,0.17
2013-2-9,54.7,50.4,47.5,45.0,41.6,37.4,83,72,53,0.00,40.00,10,1,10,0.17
2013-2-10,52.3,49.6,48.2,45.3,43.3,41.9,86,79,69,0.00,40.00,6,1,9,0.17
2013-2-11,46.9,42.3,41.5,42.4,40.0,37.9,94,92,84,0.00,40.00,11,2,11,0.00
2013-2-12,60.6,46.4,40.3,39.2,34.9,29.1,84,65,39,0.00,40.00,5,1,6,0.00
2013-2-13,58.5,51.5,46.2,37.6,34.4,30.6,70,53,35,0.00,40.00,4,1,6,0.00
2013-2-14,53.4,48.1,45.0,42.3,37.6,26.2,87,70,36,0.00,40.00,11,2,13,0.00
2013-2-15,46.2,42.6,39.9,44.4,40.7,33.6,98,93,79,0.00,40.00,11,2,11,0.62
2013-2-16,41.0,39.7,38.3,34.2,30.1,26.2,79,69,58,0.00,40.00,8,1,9,0.00
2013-2-17,47.7,40.7,38.8,30.2,28.8,26.6,69,62,48,0.00,40.00,9,2,9,0.00
2013-2-18,46.0,41.4,38.8,31.8,28.7,25.3,71,61,46,0.00,40.00,7,2,8,0.00
2013-2-19,50.4,42.2,36.9,35.4,27.5,18.3,86,58,28,0.00,40.00,11,2,11,0.08
2013-2-20,44.2,41.9,39.2,39.4,35.9,33.6,94,80,67,0.00,40.00,8,2,9,0.04
2013-2-21,50.0,47.7,41.0,35.2,32.7,30.6,71,56,48,0.00,40.00,4,0,4,0.00
2013-2-22,52.3,48.9,45.1,44.8,40.3,34.5,81,72,61,0.00,40.00,11,1,11,0.08
2013-2-23,52.3,49.4,47.5,46.8,44.8,43.0,89,84,79,0.00,40.00,4,1,4,0.04
2013-2-24,64.2,50.2,44.4,46.2,42.2,39.4,92,75,45,0.00,40.00,7,1,7,0.00
2013-2-25,56.7,48.2,43.2,46.4,41.7,39.2,93,79,61,0.00,40.00,10,2,11,0.00
2013-2-26,49.3,46.1,44.4,45.7,43.7,42.3,98,91,81,0.00,40.00,9,2,9,0.13
2013-2-27,46.0,45.4,44.8,45.0,44.4,44.1,97,96,95,0.00,40.00,6,1,7,0.00
2013-2-28,45.3,42.8,40.3,41.2,37.7,34.5,93,82,74,0.00,40.00,9,2,10,0.04